SCP
1 1 1 1 1 1 1 1 1 2 2 2 3 4 4 4 3 3 3 2 1 1 1 2 2 3 2 2 2 1 1 1 1 1 1 1 1 1 1 1 1 0 0
2 1 1 1 1 1 1 1 2 2 2 2 3 3 3 3 3 2 2 2 1 1 1 2 3 3 2 2 2 1 1 1 1 1 1 1 1 1 1 1 1 1 1
2 2 1 1 1 1 1 1 2 2 3 2 2 2 2 2 2 2 2 2 1 1 1 2 3 2 2 2 2 1 1 1 1 1 1 1 1 1 1 1 1 1 1
3 2 2 1 1 1 1 1 2 2 3 2 2 1 1 1 2 2 2 2 2 1 2 2 2 2 2 2 2 1 1 1 1 1 1 1 1 1 1 1 1 1 1
4 3 2 2 1 1 1 1 2 2 2 2 1 1 1 1 1 2 2 2 2 2 2 2 2 2 2 2 2 1 1 1 1 1 1 1 1 1 1 1 1 1 1
4 3 3 2 2 1 1 1 1 2 2 2 1 1 1 1 1 1 2 2 2 2 2 2 2 2 2 1 1 1 1 1 1 1 1 1 1 1 1 1 1 1 1
3 3 2 3 2 2 1 1 2 2 2 2 1 1 1 1 1 1 1 1 1 1 1 1 1 1 1 1 1 1 1 1 1 1 1 1 1 1 1 1 1 1 1
2 2 2 3 2 2 2 2 2 2 2 2 1 1 1 1 1 1 1 1 1 1 1 1 1 1 1 1 1 1 1 1 1 1 1 1 1 1 1 1 1 1 1
2 2 2 2 2 2 2 3 3 3 2 2 2 1 1 1 1 1 1 1 1 1 1 1 1 1 1 1 1 1 1 1 1 1 1 1 1 1 1 1 1 1 1
1 2 2 2 2 2 3 4 4 4 3 3 2 2 2 2 2 1 1 1 1 1 1 1 1 1 1 1 1 1 1 1 1 1 1 1 2 2 1 1 1 1 1
1 1 2 2 2 2 3 4 5 5 5 4 4 3 3 2 2 2 1 1 1 1 1 1 1 1 1 1 1 1 1 1 1 1 1 1 2 2 2 2 2 2 2
1 1 1 1 2 2 2 3 4 5 5 5 5 4 4 3 3 2 2 1 1 1 1 1 1 1 1 1 1 1 1 1 1 1 1 1 2 2 3 3 3 3 2
1 1 1 1 1 1 2 2 3 4 5 6 6 6 5 5 4 3 2 2 1 1 1 1 1 1 1 1 1 1 1 1 1 1 1 1 1 2 3 4 4 4 3
1 1 1 1 1 2 2 2 2 3 4 7 8 7 6 5 4 3 3 2 1 1 1 1 1 1 1 1 1 1 1 1 1 1 1 1 1 2 3 3 4 3 3
2 2 2 2 2 2 2 1 1 2 4 6 8 7 6 5 4 3 3 2 1 1 1 1 1 1 1 1 1 1 1 1 1 1 1 1 1 2 2 2 2 2 2
2 3 3 3 3 2 2 1 1 1 3 6 7 6 5 4 3 3 2 2 1 1 1 1 1 1 1 1 1 1 1 1 1 1 1 2 2 2 2 2 2 2 2
4 4 4 3 3 2 1 1 1 1 3 5 6 5 4 3 2 2 2 2 2 1 1 1 1 1 1 1 1 1 0 1 1 1 2 2 2 2 2 2 2 2 2
5 5 4 3 3 2 1 1 1 1 2 4 4 4 3 2 2 2 3 3 3 2 1 1 1 1 1 1 1 1 1 1 1 1 2 2 2 2 2 2 2 2 2
5 5 5 4 3 3 2 1 1 1 2 3 3 3 2 2 2 2 3 3 3 2 1 1 1 1 1 1 1 1 1 1 2 2 2 2 1 1 2 2 2 2 2
5 6 6 5 5 3 2 2 2 2 2 3 3 3 2 2 2 2 2 3 3 2 2 1 1 1 1 1 1 1 1 1 2 2 2 1 1 1 1 1 1 1 1
6 7 7 6 6 5 4 3 3 3 3 4 4 4 3 3 3 2 2 2 3 3 2 2 1 1 1 1 1 1 1 1 1 1 1 1 1 1 1 1 1 1 1
7 7 7 7 7 6 6 5 5 4 4 4 4 4 4 3 3 2 2 2 2 3 3 2 2 1 1 1 1 1 1 1 1 1 1 1 1 1 1 1 1 2 2
8 7 7 8 9 8 8 8 7 6 5 5 5 4 4 4 3 3 2 2 2 2 2 2 2 2 1 1 1 1 1 1 1 1 1 1 1 1 1 1 1 2 2
8 7 7 10 11 12 11 11 10 9 8 7 6 5 4 4 3 3 3 3 3 2 2 2 2 2 2 1 1 1 1 1 1 1 1 1 1 1 1 1 1 1 2
8 7 7 10 13 14 14 14 13 12 10 10 8 7 5 4 4 3 3 3 3 2 3 2 2 2 2 1 1 1 1 1 1 1 1 1 1 1 1 1 1 1 2
8 6 6 9 13 15 16 16 15 13 12 12 11 8 6 4 4 4 4 3 2 2 3 2 2 2 2 1 1 1 1 1 1 1 1 1 1 1 1 1 1 1 2
Wind_Speed
10 11 11 10 9 9 9 8 8 9 9 9 9 9 10 10 10 10 10 10 10 11 11 11 10 10 9 9 8 8 9 9 9 8 9 9 9 8 8 8 7 7 10
12 12 12 10 9 9 9 9 9 9 9 9 9 10 10 10 10 10 10 10 10 10 10 10 10 10 9 8 7 8 8 8 8 8 8 7 8 8 8 7 6 7 10
13 12 11 11 10 10 9 9 10 10 10 10 10 9 10 9 9 9 9 9 9 10 9 9 9 9 8 7 7 7 7 6 7 7 7 5 6 8 8 8 9 9 9
14 12 12 11 10 10 10 10 10 10 10 10 9 9 9 9 9 9 9 8 9 9 9 9 9 8 7 7 6 6 6 6 6 6 4 4 6 9 8 8 8 8 8
14 13 13 12 11 10 10 10 10 9 9 9 9 9 8 8 8 8 8 8 8 8 8 8 8 7 7 6 5 5 5 5 5 6 2 4 5 9 9 8 7 7 7
14 14 13 12 11 10 10 10 9 9 9 9 9 8 8 8 8 7 7 7 7 7 7 7 7 7 6 5 4 4 4 4 4 4 3 4 6 10 9 8 7 6 6
13 13 13 12 11 10 10 10 9 9 8 8 8 8 8 8 8 7 6 6 6 6 5 5 6 6 5 5 4 3 3 4 5 2 3 5 6 10 10 9 8 7 6
13 13 12 12 11 10 9 9 8 8 7 7 7 7 7 7 7 7 6 5 5 5 5 5 5 5 5 4 4 3 3 5 4 3 4 5 10 11 10 9 8 7 7
12 12 11 11 10 10 9 8 8 8 7 6 6 6 6 6 6 6 6 5 6 5 5 5 5 4 4 4 4 4 4 5 5 1 4 5 10 11 10 9 8 7 7
9 10 9 9 9 8 8 8 8 7 6 6 5 5 5 5 6 6 7 6 6 6 6 6 6 5 6 6 6 6 6 5 4 2 3 5 10 10 10 8 8 7 7
8 8 7 7 8 7 8 8 8 7 5 5 4 6 5 4 4 5 6 7 7 6 7 7 7 7 7 7 8 8 6 3 2 1 2 7 9 10 9 8 8 8 8
7 7 5 6 6 6 5 6 4 4 5 3 2 3 2 2 2 4 7 7 7 7 7 8 8 8 8 5 7 9 4 4 3 2 4 10 10 10 9 9 8 8 8
7 6 6 5 5 4 4 4 3 2 3 3 2 2 1 1 2 3 3 4 4 6 4 5 6 5 5 3 3 4 3 3 2 2 4 9 9 9 9 8 8 8 8
7 6 5 6 4 3 3 3 3 2 2 3 3 1 1 1 1 1 1 2 3 2 2 2 2 2 3 2 2 3 3 2 3 3 4 7 8 8 8 8 8 8 7
8 7 5 6 5 3 2 1 2 2 2 4 3 2 1 1 1 1 1 1 1 1 2 1 1 1 1 1 2 3 2 2 4 4 4 7 8 7 7 7 7 7 7
7 7 6 6 5 3 2 0 1 2 2 3 4 4 2 2 1 1 1 1 1 1 1 2 1 1 1 1 1 2 2 2 3 4 5 6 8 8 7 6 6 6 6
7 6 6 7 6 3 2 1 1 1 3 3 4 4 2 1 1 1 1 1 0 1 1 1 1 1 2 2 2 2 2 2 3 4 5 5 5 7 7 6 6 5 5
7 6 5 5 6 5 2 1 1 1 2 2 3 3 3 2 1 1 1 1 1 1 1 1 1 1 1 1 2 2 2 2 3 4 4 4 4 5 6 7 6 6 6
7 6 5 4 5 5 3 2 1 1 1 2 2 2 2 2 1 1 1 1 1 1 1 1 2 1 0 1 2 2 2 3 3 3 3 4 4 4 4 7 7 6 6
8 7 6 5 4 4 3 2 1 1 1 2 2 2 2 1 1 1 1 0 1 2 2 2 2 1 1 1 1 0 1 3 3 3 4 3 3 4 4 5 5 5 6
8 7 6 5 4 3 2 2 2 2 2 2 2 2 2 1 1 1 2 1 1 2 1 1 1 0 1 1 0 1 1 2 3 3 2 2 3 3 4 5 4 3 4
8 7 6 5 5 4 3 2 2 2 2 2 2 3 2 2 0 1 1 1 1 1 1 1 1 1 1 0 1 1 1 0 1 3 3 3 3 3 4 5 4 4 3
9 9 7 6 5 5 4 3 2 2 2 2 2 2 2 1 2 1 2 1 2 1 1 0 1 1 1 1 1 0 0 0 0 1 2 3 3 2 2 3 4 4 4
9 9 8 7 6 5 4 3 4 3 2 2 2 2 2 1 1 1 1 1 2 2 2 1 1 2 1 1 1 0 0 0 0 0 0 1 2 2 2 2 2 2 2
9 9 8 7 6 5 4 4 3 2 2 2 2 3 3 2 2 1 1 1 1 1 1 1 2 2 2 2 2 1 0 0 1 1 1 0 0 1 2 1 1 1 2
8 8 8 7 6 5 5 4 4 3 2 2 2 2 2 2 2 2 1 1 0 0 1 1 1 1 1 2 2 2 1 1 1 0 0 1 1 1 1 1 1 1 2
Wind_Direction
102 104 98 91 87 84 82 83 88 87 90 93 95 101 105 106 105 105 106 110 115 117 120 121 121 120 119 118 116 117 116 114 110 110 107 104 106 111 119 123 129 119 119
107 107 101 93 88 84 81 82 89 92 94 95 97 101 105 108 108 109 111 114 118 121 122 122 121 122 123 123 121 120 122 124 124 123 119 117 118 118 119 121 114 113 123
108 111 104 94 89 86 84 84 87 92 94 96 97 102 105 107 108 109 114 118 121 122 123 123 125 126 126 127 128 131 136 140 143 147 146 142 130 126 120 115 114 118 121
114 115 104 100 93 89 86 85 86 90 93 93 95 100 106 106 107 111 116 119 123 123 123 124 127 131 131 131 135 141 147 156 167 178 179 152 137 132 128 123 123 125 128
109 109 106 107 99 93 90 87 88 91 94 94 93 96 103 102 104 110 116 118 121 123 124 125 127 130 132 134 139 148 158 171 194 215 185 128 121 136 138 135 134 135 137
111 110 113 113 107 100 95 93 92 93 95 96 95 94 102 107 108 110 112 116 119 123 125 128 132 132 135 141 147 161 177 193 224 219 167 130 126 142 145 145 143 139 142
111 112 119 120 115 109 104 99 99 99 98 99 100 102 108 114 117 115 118 123 122 124 126 129 134 137 141 143 153 172 195 224 238 203 138 121 130 144 149 152 156 155 151
113 116 123 126 123 118 113 108 104 102 104 106 106 107 109 114 118 125 131 136 138 141 140 141 146 152 152 157 172 199 222 249 230 180 140 129 142 149 153 159 163 164 165
113 120 129 136 134 129 124 119 115 110 110 117 118 116 119 124 128 135 141 147 157 161 160 160 164 169 174 183 195 217 237 253 271 215 144 131 149 153 158 162 168 170 173
112 116 126 135 137 142 141 139 135 130 128 132 134 135 140 147 153 154 156 162 170 173 173 175 186 190 195 198 207 221 237 256 250 190 130 138 152 156 161 166 173 175 177
109 111 124 129 140 147 148 144 152 150 154 158 163 165 180 185 168 171 155 166 177 182 188 192 198 202 206 211 217 221 227 230 236 135 118 147 160 162 166 173 180 184 183
122 121 124 125 130 143 134 134 154 155 153 175 147 162 187 167 162 139 148 170 184 192 201 209 214 214 217 215 214 217 221 207 215 157 147 158 163 164 167 173 180 184 183
131 127 128 124 117 125 124 135 147 146 142 149 116 113 121 129 124 120 150 173 191 197 207 203 217 221 210 204 198 189 210 207 165 139 149 158 161 168 170 174 179 181 183
131 129 128 115 109 93 95 117 138 142 138 122 111 102 104 90 84 98 143 169 178 180 184 196 211 210 200 191 193 170 190 189 137 127 147 154 156 163 169 174 180 184 184
130 131 123 108 96 82 70 49 120 116 113 114 116 95 70 95 85 89 93 105 149 148 161 185 188 174 169 185 203 176 184 154 149 152 151 158 154 157 166 174 180 188 192
127 131 128 117 112 101 105 81 55 109 112 105 109 98 54 63 68 76 92 83 57 75 121 144 146 142 145 155 163 164 178 161 156 152 154 162 160 157 160 168 173 179 189
134 134 134 132 125 126 137 130 105 93 103 97 102 105 103 79 83 88 98 102 96 134 124 119 117 116 142 156 167 180 175 175 164 167 164 163 168 172 173 171 171 174 182
132 127 129 137 138 141 147 127 86 60 83 102 107 110 117 103 83 68 93 96 183 153 132 133 140 138 139 164 181 184 164 172 172 174 171 169 167 171 178 179 176 176 178
131 133 137 142 141 150 161 162 161 110 86 89 95 100 111 115 78 45 84 18 285 119 99 94 85 73 133 190 205 182 183 175 174 181 173 175 170 170 169 179 184 184 188
138 143 150 154 147 157 158 160 157 122 113 105 98 91 98 99 94 11 111 38 11 53 61 58 69 58 300 271 274 167 190 178 171 176 187 181 176 174 170 172 178 189 194
145 146 151 159 155 159 162 170 171 158 152 136 124 115 119 88 77 41 24 34 59 73 64 77 84 232 253 249 294 325 249 197 177 176 182 168 169 171 170 173 176 179 184
154 152 156 166 163 167 166 174 173 167 163 153 128 126 129 120 57 77 54 21 34 89 66 13 9 326 287 301 269 270 288 142 221 186 168 175 180 177 177 179 184 175 178
163 163 166 165 164 173 174 177 174 167 182 151 140 136 131 135 114 51 55 28 351 18 72 354 326 303 305 310 324 16 319 317 297 169 181 163 160 164 185 177 179 184 182
169 167 162 160 163 169 175 185 186 175 176 169 153 139 141 124 117 103 73 50 11 14 29 346 36 317 309 311 331 19 185 120 244 305 310 141 152 166 179 188 163 162 165
169 164 162 159 164 163 172 172 184 191 185 169 151 145 148 152 150 124 102 88 50 26 21 11 14 357 356 341 327 316 305 207 237 213 237 146 141 163 158 146 118 139 155
162 160 157 155 160 166 179 179 181 189 186 171 162 156 162 146 136 120 104 85 81 44 351 348 354 17 353 335 334 344 346 351 305 238 206 211 183 158 127 135 131 133 137